ORBCOMM FM113

Last updated on Sun Jun 21 2026 00:03:16 GMT+0000 (Coordinated Universal Time)

1 41185U 15081G 26171.20126286 .00000204 00000+0 79455-4 0 9997 2 41185 47.0004 256.3723 0002404 235.0775 124.9885 14.58860795559372
UTC large
Height (km)
Speed (km/s)
/
Latitude / Longitude
Inclination (degrees)
Orbital Period (minutes)
Azimuth
Elevation
Range (km)
Doppler Factor

Next 0 passes for location: London (51.5072 / 0.1276)

No passes found over London.
ORBCOMM FM113